Terminal Aerodrome Forecast
Issued by NWS Los Angeles, CA

Home | Current Version | Previous Version | Text Only | Print | Product List | Glossary On
Versions: 1 2 3 4 5 6 7 8 9 10 11 12 13 14 15 16 17 18 19 20 21 22 23 24 25 26
000
FTUS46 KLOX 211700
TAFSMX
TAF
KSMX 211724Z 2118/2218 36011KT P6SM SCT200
     FM212000 32015G22KT P6SM SCT200
     FM220300 31008KT P6SM SKC
     FM220700 VRB03KT P6SM SKC=

USA.gov is the U.S. government's official web portal to all federal, state and local government web resources and services.